Weather History for Glasgow, United Kingdom

Change the Weather History Date:

Wednesday, March 7, 2012

  Actual Average Record
Temperature  
Mean Temperature 43 °F -  
Max Temperature 51 °F 48 °F 55 °F (2001)
Min Temperature 35 °F 35 °F 26 °F (1999)
Degree Days  
Heating Degree Days 22    
Moisture  
Dew Point 38 °F    
Average Humidity 84    
Maximum Humidity 94    
Minimum Humidity 66    
Precipitation  
Precipitation 0.00 in - - ()
Sea Level Pressure  
Sea Level Pressure 29.75 in    
Wind  
Wind Speed 16 mph ()    
Max Wind Speed 31 mph    
Max Gust Speed 44 mph    
Visibility 5.7 miles    
Events Rain    
Averages and records for this station are not official NWS values.
T = Trace of Precipitation, MM = Missing Value Source: Averaged Metar Reports

Daily Weather History Graph

Daily Weather History Graph

Search for Another Location

Airport:

Trip Planner

Search our weather history database for the weather conditions in past years. The results will help you decide how hot, cold, wet, or windy it might be!

Date:

Astronomy

Mar. 07, 2012 Rise Set
Actual Time 6:52 AM GMT 6:05 PM GMT
Civil Twilight 6:16 AM GMT 6:42 PM GMT
Nautical Twilight 5:33 AM GMT 7:25 PM GMT
Astronomical Twilight 4:49 AM GMT 8:09 PM GMT
Moon 5:26 PM GMT (3/7) 5:59 AM GMT (3/7)
Length of Visible Light 12h 26m
Length of Day
11h 12m
Waxing Gibbous, 99% of the Moon is Illuminated
Mar 7
Waxing Gibbous
Mar 8
Full
Mar 15
Last Quarter
Mar 22
New
Mar 30
First Quarter

Hourly Weather History & Observations

Time (GMT) Temp. Windchill Dew Point Humidity Pressure Visibility Wind Dir Wind Speed Gust Speed Precip Events Conditions
12:20 AM 50.0 °F - 48.2 °F 94% 29.62 in 3.7 mi SW 26.5 mph - N/A Rain Light Rain
12:50 AM 50.0 °F - 48.2 °F 94% 29.59 in 3.1 mi SSW 28.8 mph 41.4 mph N/A Rain Rain
1:20 AM 51.8 °F - 48.2 °F 88% 29.59 in 3.1 mi SSW 31.1 mph - N/A Rain Light Rain
1:50 AM 51.8 °F - 48.2 °F 88% 29.56 in 2.2 mi SW 28.8 mph - N/A   Drizzle
2:20 AM 51.8 °F - 48.2 °F 88% 29.56 in 6.2 mi SW 29.9 mph 43.7 mph N/A   Mostly Cloudy
2:50 AM 50.0 °F - 48.2 °F 94% 29.56 in 2.5 mi WSW 20.7 mph - N/A Rain Rain
3:20 AM 50.0 °F - 44.6 °F 82% 29.56 in 5.0 mi WSW 17.3 mph - N/A Rain Light Rain
3:50 AM 48.2 °F - 44.6 °F 87% 29.56 in 5.0 mi WSW 13.8 mph - N/A Rain Light Rain
4:20 AM 48.2 °F - 42.8 °F 82% 29.56 in 5.0 mi WSW 18.4 mph - N/A   Mostly Cloudy
4:50 AM 46.4 °F 41.1 °F 41.0 °F 81% 29.56 in 6.2 mi WSW 11.5 mph - N/A   Scattered Clouds
5:20 AM 46.4 °F 41.1 °F 41.0 °F 81% 29.56 in 6.2 mi West 11.5 mph - N/A   Scattered Clouds
5:50 AM 42.8 °F 35.1 °F 39.2 °F 87% 29.56 in 6.2 mi West 16.1 mph - N/A   Mostly Cloudy
6:20 AM 42.8 °F 36.2 °F 39.2 °F 87% 29.59 in 6.2 mi West 12.7 mph - N/A Rain Light Rain
6:50 AM 42.8 °F 36.6 °F 39.2 °F 87% 29.62 in 6.2 mi West 11.5 mph - N/A Rain Light Rain
7:20 AM 42.8 °F 37.0 °F 37.4 °F 81% 29.62 in 6.2 mi West 10.4 mph - N/A Rain Light Rain
7:50 AM 41.0 °F 34.7 °F 37.4 °F 87% 29.65 in 6.2 mi WSW 10.4 mph - N/A   Scattered Clouds
8:20 AM 41.0 °F 35.8 °F 35.6 °F 81% 29.65 in 6.2 mi WSW 8.1 mph - N/A   Partly Cloudy
8:50 AM 44.6 °F 37.2 °F 37.4 °F 76% 29.65 in 5.6 mi West 17.3 mph 31.1 mph N/A Rain Rain
9:20 AM 39.2 °F 30.8 °F 35.6 °F 87% 29.68 in 6.2 mi WNW 15.0 mph - N/A   Mostly Cloudy
9:50 AM 39.2 °F 32.0 °F 37.4 °F 93% 29.68 in 6.2 mi SW 11.5 mph - N/A   Partly Cloudy
10:20 AM 41.0 °F 36.4 °F 37.4 °F 87% 29.71 in 6.2 mi West 6.9 mph - N/A   Scattered Clouds
10:50 AM 44.6 °F 40.2 °F 37.4 °F 76% 29.71 in 6.2 mi West 8.1 mph - N/A   Scattered Clouds
11:20 AM 39.2 °F 29.6 °F 33.8 °F 81% 29.74 in 5.6 mi West 19.6 mph 33.4 mph N/A Rain Light Rain
11:50 AM 39.2 °F 30.8 °F 35.6 °F 87% 29.74 in 6.2 mi WNW 15.0 mph - N/A Rain Light Rain
12:20 PM 39.2 °F 31.6 °F 35.6 °F 87% 29.77 in 5.6 mi West 12.7 mph - N/A   Mostly Cloudy
12:50 PM 42.8 °F 38.6 °F 37.4 °F 81% 29.77 in 6.2 mi West 6.9 mph - N/A Rain Light Rain
1:20 PM 41.0 °F 34.3 °F 37.4 °F 87% 29.77 in 6.2 mi WSW 11.5 mph - N/A   Partly Cloudy
1:50 PM 42.8 °F 34.8 °F 37.4 °F 81% 29.77 in 6.2 mi West 17.3 mph - N/A   Scattered Clouds
2:20 PM 44.6 °F 36.4 °F 35.6 °F 71% 29.80 in 6.2 mi West 20.7 mph - N/A   Scattered Clouds
2:50 PM 44.6 °F 36.9 °F 33.8 °F 66% 29.80 in 6.2 mi West 18.4 mph - N/A   Scattered Clouds
3:20 PM 42.8 °F 34.0 °F 33.8 °F 70% 29.83 in 3.1 mi West 20.7 mph 42.6 mph N/A Rain Rain Showers
3:50 PM 37.4 °F 30.3 °F 35.6 °F 93% 29.83 in 6.2 mi West 10.4 mph - N/A   Scattered Clouds
4:20 PM 41.0 °F 36.4 °F 35.6 °F 81% 29.83 in 6.2 mi West 6.9 mph - N/A   Scattered Clouds
4:50 PM 41.0 °F 32.8 °F 35.6 °F 81% 29.83 in 6.2 mi WSW 16.1 mph - N/A   Scattered Clouds
5:20 PM 41.0 °F 32.5 °F 33.8 °F 76% 29.83 in 6.2 mi West 17.3 mph - N/A   Scattered Clouds
5:50 PM 39.2 °F 32.0 °F 33.8 °F 81% 29.86 in 6.2 mi West 11.5 mph - N/A   Scattered Clouds
6:20 PM 39.2 °F 30.8 °F 33.8 °F 81% 29.89 in 6.2 mi West 15.0 mph - N/A   Scattered Clouds
6:50 PM 39.2 °F 30.5 °F 33.8 °F 81% 29.89 in 5.0 mi West 16.1 mph - N/A Rain Light Rain
7:20 PM 35.6 °F 29.2 °F 33.8 °F 93% 29.89 in 6.2 mi SW 8.1 mph - N/A   Scattered Clouds
7:50 PM 37.4 °F 30.8 °F 33.8 °F 87% 29.92 in 6.2 mi WSW 9.2 mph - N/A Rain Light Rain
8:20 PM 37.4 °F 32.1 °F 35.6 °F 93% 29.92 in 6.2 mi WSW 6.9 mph - N/A   Mostly Cloudy
8:50 PM 39.2 °F 32.5 °F 33.8 °F 81% 29.95 in 6.2 mi WSW 10.4 mph - N/A   Scattered Clouds
9:20 PM 39.2 °F 33.6 °F 33.8 °F 81% 29.95 in 6.2 mi West 8.1 mph - N/A Rain Light Rain
9:50 PM 37.4 °F 28.5 °F 33.8 °F 87% 29.95 in 6.2 mi WSW 15.0 mph - N/A   Scattered Clouds
10:20 PM 37.4 °F 30.8 °F 33.8 °F 87% 29.98 in 6.2 mi West 9.2 mph - N/A   Scattered Clouds
10:50 PM 37.4 °F 30.3 °F 33.8 °F 87% 29.98 in 6.2 mi WSW 10.4 mph - N/A   Partly Cloudy
11:20 PM 39.2 °F 32.5 °F 35.6 °F 87% 30.01 in 6.2 mi WSW 10.4 mph - N/A Rain Light Rain
11:50 PM 39.2 °F 33.6 °F 35.6 °F 87% 30.01 in 6.2 mi West 8.1 mph - N/A   Mostly Cloudy